Other Public Products
Issued by NWS Grand Forks, ND

Home | Current Version | Previous Version | Graphics & Text | Print | Product List | Glossary On
Versions: 1 2 3 4 5 6 7 8 9 10 11 12 13 14 15 16 17 18 19 20 21 22 23 24 25 26 27 28 29 30 31 32 33 34 35 36 37 38 39 40 41 42 43 44 45 46 47 48 49 50
000
FPUS83 KFGF 271710
OPUFGF
PRAIRIE TO PINES WEATHER ROUNDUP
NATIONAL WEATHER SERVICE EASTERN NORTH DAKOTA/GRAND FORKS ND
1200 PM CDT SUN MAY 27 2018

 **SATELLITE DATA USED TO AUGMENT SKY COVER AT AUTOMATED STATIONS**
 *****  WEATHER ACROSS EASTERN NORTH DAKOTA  *****

CITY           SKY/WX    TMP DP  RH WIND       PRES   REMARKS
GRAND FORKS    CLOUDY    73  64  73 NW6       29.82R
GRND FORKS AFB PTSUNNY   73  64  73 N7        29.84R
GRND FORKS NWS   N/A     73  64  72 NW6       29.79R
BUXTON           N/A     73  65  76 SE6         N/A
DEVILS LAKE    FAIR      71  62  73 NE12      29.88R
FARGO          FAIR      73  59  61 SE8G23    29.78R
WAHPETON ARPT  FAIR      73  59  60 E14       29.80S
$$

 *****  WEATHER ACROSS CENTRAL AND WESTERN NORTH DAKOTA  *****

CITY           SKY/WX    TMP DP  RH WIND       PRES   REMARKS
JAMESTOWN      FAIR      72  59  63 VRB6      29.79R
BISMARCK       FAIR      75  59  57 NW9       29.86R
MINOT          FAIR      77  58  51 E7        29.87R
MINOT AFB      FAIR      77  57  50 SE6       29.86R
GARRISON         N/A     70  61  73 NE8       29.89R
WILLISTON      FAIR      75  58  55 E6        29.94R
DICKINSON      FAIR      72  58  61 N14       29.87F
HETTINGER      FAIR      73  57  57 NW14      29.89S
$$

 *****  OTHER OBSERVATIONS NORTHEAST NORTH DAKOTA  *****

CITY           SKY/WX    TMP DP  RH WIND       PRES   REMARKS
WALHALLA       FAIR      72  72 100 N5        29.86S
LANGDON        FAIR      73  70  88 E7        29.87F
CAVALIER         N/A     72  64  78 N7        29.85S
GRAFTON        FAIR      72  66  83 NW10      29.87R
CANDO          FAIR      75  64  69 E7        29.88S
FORT TOTTEN      N/A     73  66  78 N5        29.95S
ROLLA          PTSUNNY   72  66  83 SE12      29.89S
RUGBY          NOT AVBL
 ***** THE ABOVE OBSERVATIONS ARE NON NWS ARE NOT QUALITY
        CONTROLLED AND MAY MIS-REPORT RAIN FOR SNOW...
$$

 *****  OTHER OBSERVATIONS SOUTHEAST NORTH DAKOTA *****

CITY           SKY/WX    TMP DP  RH WIND       PRES   REMARKS
COOPERSTOWN    FAIR      70  61  73 E5        29.83R
VALLEY CITY    DRIZZLE   70  59  68 S24G32    29.73F
OAKES          NOT AVBL
GWINNER          N/A     73  64  73 E18       29.81R
SHEYENNE NWR     N/A     77  64  63 SE14      29.95S
BUFFALO          N/A     70  55  57 W36G51      N/A
WYNDMERE       NOT AVBL
 ***** THE ABOVE OBSERVATIONS ARE NON NWS ARE NOT QUALITY
       CONTROLLED AND MAY MIS-REPORT RAIN FOR SNOW...
$$

  *****  WEATHER ACROSS NORTHERN MINNESOTA  *****

CITY           SKY/WX    TMP DP  RH WIND       PRES   REMARKS
FLAG ISLAND    FAIR      68  63  83 CALM      29.85R
WARROAD        FAIR      72  64  78 E3        29.85R
ROSEAU         FAIR      75  64  69 NE6       29.84R
HALLOCK        FAIR      75  64  69 N3        29.84S
THF RVR FALLS  FAIR      74  59  59 VRB3      29.82S
HALSTAD          N/A     72  63  71 S7          N/A
FOSSTON        FAIR      72  63  73 SE7       29.81R
BAUDETTE         N/A    N/A N/A N/A MISG      29.83
WASKISH        FAIR      73  63  68 CALM      29.82F
CROOKSTON      FAIR      73  61  64 CALM      29.81R
$$
  *****  WEATHER ACROSS CENTRAL AND WEST MINNESOTA  *****

CITY           SKY/WX    TMP DP  RH WIND       PRES   REMARKS
BEMIDJI        FAIR      67  60  76 SE5       29.79F
PARK RAPIDS    FAIR      65  62  90 SE10      29.83F
WADENA         FAIR      64  61  88 E8        29.84F
DETROIT LAKES  FAIR      70  59  68 SE13      29.81F
MOORHEAD       FAIR      73  59  60 SE9G20    29.79R
FERGUS FALLS   FAIR      72  61  68 E15G21    29.76F
ELBOW LAKE     FAIR      69  61  74 E14       29.82F
MORRIS MN      FAIR      70  63  78 E17       29.82F
STAPLES        FAIR      63  59  88 E5        29.87F
WHEATON        NOT AVBL
$$
  *****  WEATHER ELSEWHERE ACROSS MINNESOTA  *****

CITY           SKY/WX    TMP DP  RH WIND       PRES   REMARKS
DULUTH         FAIR      85  59  41 W10       29.89S
INTRNTL FALLS  FAIR      76  62  62 CALM      29.83F
ELY            FAIR      81  55  41 W8G16     29.86F
CLOQUET        FAIR      82  55  39 CALM      29.90R
BRAINERD       RAIN      71  57  61 N13       29.95R
HIBBING        FAIR      75  62  64 W3        29.89F
ALEXANDRIA     FAIR      70  60  70 NE9       29.87F
SAINT CLOUD    FAIR      79  53  40 NW22G38   29.89F
MINNEAPOLIS    CLOUDY    88  64  44 NW14G21   29.87S
$$

  *****  WEATHER ACROSS SOUTH DAKOTA  *****

CITY           SKY/WX    TMP DP  RH WIND       PRES   REMARKS
SIOUX FALLS    PTSUNNY   90  61  37 VRB7      29.82S HX  90
BROOKINGS      FAIR      86  61  42 SE9       29.84F
WATERTOWN      FAIR      83  56  39 E12G22    29.85R
HURON          FAIR      88  65  46 S9        29.77F HX  90
SISSETON         N/A     74  65  73 SE16      29.81F
ABERDEEN       FAIR      87  58  37 SE24G33   29.74F
MITCHELL       FAIR      91  65  41 SW8       29.79S HX  93
PIERRE         FAIR      84  62  47 SW14      29.71S
MOBRIDGE       FAIR      86  62  44 E10       29.72R
RAPID CITY     FAIR      76  58  53 N18G26    29.87R
$$

  *****  SOME WEATHER IN NEARBY STATES *****

CITY           SKY/WX    TMP DP  RH WIND       PRES   REMARKS
GLASGOW MT     FAIR      79  55  43 N13       29.96R
GREAT FALLS MT FAIR      72  47  40 NW5       30.06R
CHEYENNE WY    FAIR      68  55  63 N17G28    29.99F
SCOTTSBLUFF NE FAIR      77  58  51 N6        29.87S
OMAHA NE       FAIR      93  61  34 SW9       29.86S HX  93
DES MOINES IA  FAIR      93  68  43 CALM      29.85S HX  97
DAVENPORT IA   FAIR      91  70  49 S8        29.88F HX  96
CHICAGO IL     FAIR      91  62  37 S5        29.87R HX  91
EAU CLAIRE WI  FAIR      89  62  40 W8        29.88R
LA CROSSE WI   FAIR      88  71  57 NW3       29.86R HX  94
$$

  *****  SOME NATIONAL WEATHER *****

CITY           SKY/WX    TMP DP  RH WIND       PRES   REMARKS
LA GUARDIA NY  CLOUDY    64  58  80 NE25G33   30.02S
RALEIGH NC     PTSUNNY   83  73  72 SW13      30.01F
ATLANTA GA     CLOUDY    80  68  66 E10       29.97F
NEW ORLEANS LA FAIR      83  73  72 NE8       29.85F
OKLAHOMA CITY  FAIR      86  72  62 SE12      29.89S HX  92
ALBUQUERQUE NM FAIR      75  17  11 W6        30.00F
SALT LAKE CITY PTSUNNY   57  50  77 W12       29.96S
LOS ANGELES CA PTSUNNY   65  52  62 VRB3      29.97F
BOISE ID       FAIR      66  50  56 NW12      29.99F
SEATTLE WA     FAIR      59  47  64 W7        30.26S
$$

*** WEATHER ACROSS MANITOBA...SASKATCHEWAN AND ONTARIO ***
                ***ONTARIO***

CITY           SKY/WX    TMP DP  RH WIND       PRES   REMARKS
GERALDTON      MOSUNNY   63  57  82 SW5       29.83S
THUNDER BAY    PTSUNNY   66  57  72 NE10      29.83S
SIOUX LOOKOUT  PTSUNNY   73  57  56 NW9       29.84S
TORONTO        MOSUNNY   77  64  65 SE7       29.91F
BIG TROUT LK   CLOUDY    59  50  72 W9        29.73F
PICKLE LAKE    CLOUDY    59  57  94 W7        29.81S
DRYDEN         SUNNY     72  57  60 W8        29.84F
KENORA         CLOUDY    70  55  60 NW3       29.86S
$$
                *** MANITOBA***

CITY           SKY/WX    TMP DP  RH WIND       PRES   REMARKS
BRANDON        MOSUNNY   72  64  78 W8        29.88R
DAUPHIN        CLOUDY    75  61  60 N10       29.83R
ISLAND LAKE    MOSUNNY   63  55  77 SW10      29.76F
PILOT MOUND      N/A    N/A N/A N/A SE12        N/A
THE PAS        PTSUNNY   68  45  42 NW8       29.82S
THOMPSON       PTSUNNY   73  43  33 W14G22    29.68S
WINNIPEG       CLOUDY    68  63  83 SE5       29.85S
LYNN LAKE      PTSUNNY   61  45  55 W16G25    29.73R
CHURCHILL      PTSUNNY   52  43  71 NW22      29.54R
$$
                ***SASKATCHEWAN***

CITY           SKY/WX    TMP DP  RH WIND       PRES   REMARKS
ESTEVAN        PTSUNNY   72  59  64 W12       29.92R
KINDERSLEY     MOSUNNY   70  43  37 N12G18    30.03R
LLOYDMINSTER   PTSUNNY   64  37  36 NW16G24   30.04R
PRINCE ALBERT  MOSUNNY   70  39  32 W20       29.96S
REGINA         PTSUNNY   72  48  43 N15G23    29.96R
YORKTON        SUNNY     73  55  53 N16G22    29.89S
N. BATTLEFORD  SUNNY     68  37  32 NW9       30.03S



USA.gov is the U.S. government's official web portal to all federal, state and local government web resources and services.